Location: Castillon
(43.0896°N, 0.2156°E)
Time: 03:58:55
(UTC+00:00)

Cosmos 1980 Rocket - Pass Details

Date: 21 October 2021
Orbit: 828 x 851 km, 71.0° (Epoch: 07 December)

Event Time Altitude Azimuth Distance (km) Brightness Sun altitude
Rises 17:38:45 0° 206° (SSW) 3,376 5.9 -6.6°
Reaches altitude 10° 17:41:10 10° 207° (SSW) 2,449 5.2 -7.0°
Maximum altitude 17:46:48 80° 295° (WNW) 862 2.4 -8.0°
Drops below altitude 10° 17:52:31 10° 23° (NNE) 2,479 4.4 -9.1°
Sets 17:54:59 0° 24° (NNE) 3,421 5.1 -9.5°
